Wind_Speed
96 93 89 80 73 71 67 78 72 81 80 90 94 95 94 97 99 101 102 107 102 97 97 91 95 88 88 85 82 81 76 74 71 72 71 70 68 69
104 99 95 93 87 77 77 84 80 82 81 85 97 94 98 103 104 103 102 106 107 102 97 98 95 96 96 92 84 86 83 82 84 84 83 81 78 74
108 102 101 98 96 92 82 80 93 96 83 82 93 103 101 101 109 108 106 108 107 108 102 104 103 103 102 95 97 92 92 95 94 90 89 86 84 82
110 108 105 102 97 96 92 87 92 98 98 90 94 97 103 108 104 113 112 112 112 107 106 107 108 108 101 99 102 102 95 93 99 91 91 92 90 86
108 110 107 105 100 98 95 91 93 99 107 107 106 105 102 107 107 103 116 119 115 116 111 112 110 111 107 105 105 107 106 103 100 102 98 91 93 90
102 105 104 102 98 94 92 93 96 97 103 112 109 114 114 111 109 105 103 120 124 120 120 118 114 116 118 116 113 110 111 111 106 102 98 95 92 92
93 93 92 93 90 88 86 90 93 100 99 106 112 115 115 114 118 111 100 100 118 125 126 126 126 120 122 116 111 113 114 115 106 102 103 97 105 107
92 91 90 87 86 85 85 84 90 95 98 103 108 112 115 123 119 117 104 102 98 109 127 128 127 126 128 125 123 120 120 113 115 107 113 113 105 110
90 87 85 84 83 83 83 82 84 90 95 97 103 110 114 116 119 119 112 101 97 99 101 110 126 127 123 123 121 118 116 117 115 115 119 117 108 105
84 84 81 81 81 81 81 80 82 84 87 95 98 102 108 112 112 113 110 100 95 95 95 96 102 106 107 109 109 105 101 96 93 92 86 81 78 76
76 77 77 77 79 77 76 79 79 82 86 86 89 94 97 102 104 108 106 103 93 88 92 89 94 95 94 97 98 95 90 84 82 78 71 65 67 66
69 70 73 73 75 74 72 74 77 83 83 83 84 88 92 96 98 98 101 98 94 86 88 87 91 89 87 88 90 89 85 82 77 71 65 60 60 61
62 65 67 69 70 71 71 72 77 80 81 81 81 80 85 90 92 91 91 90 90 83 85 86 85 86 83 84 83 84 82 77 75 69 62 57 56 55
57 61 63 64 63 65 68 70 74 77 78 77 77 77 76 82 85 83 83 85 85 83 82 81 83 84 82 81 80 80 79 75 72 69 62 56 51 51
53 55 57 59 61 61 65 66 67 68 70 71 72 77 78 77 79 79 79 80 81 81 79 79 79 83 81 79 79 77 77 75 71 68 62 56 51 48
47 49 53 54 57 59 58 59 59 61 63 66 69 73 76 75 76 76 76 76 77 77 75 77 77 80 80 78 79 76 74 74 72 68 64 58 53 48
42 45 47 46 46 46 47 49 52 54 56 62 66 68 71 72 75 75 74 73 72 72 73 74 75 77 79 76 75 78 75 72 71 70 65 60 54 50
37 39 38 38 40 39 41 43 46 50 56 59 62 65 67 69 71 71 73 71 70 70 69 71 71 73 75 74 77 78 75 71 70 72 67 61 57 52
33 34 36 36 37 38 39 39 43 47 51 56 58 60 62 67 69 70 72 72 70 68 67 67 66 67 69 74 77 79 75 72 70 72 69 63 59 56
30 32 34 35 35 33 34 35 37 40 44 47 51 52 54 61 66 69 71 73 73 68 66 65 63 64 65 75 77 77 77 74 72 72 70 67 63 60
29 30 30 28 27 28 29 30 32 35 39 42 45 46 49 56 63 66 70 71 73 71 67 66 67 65 67 71 75 76 76 76 74 72 71 69 66 63
23 24 23 24 25 26 28 28 30 32 36 39 41 43 47 53 57 62 67 69 70 71 70 69 66 64 67 71 74 75 76 75 75 74 74 72 70 67
19 20 20 21 22 23 23 24 26 30 33 35 37 39 43 47 52 55 61 66 68 67 67 67 64 65 65 69 71 73 76 74 73 73 75 74 73 72
Wind_Direction
286 286 286 282 270 256 246 241 245 242 248 253 246 243 238 234 235 240 241 240 239 241 242 240 240 241 233 235 241 247 247 251 254 258 258 262 264 265
285 284 282 281 279 267 257 242 240 238 238 246 250 245 242 235 235 237 239 240 240 239 240 240 237 236 235 237 240 245 247 250 251 257 260 265 261 272
281 279 278 277 276 272 262 253 239 237 233 242 246 247 244 239 238 237 239 240 239 241 242 243 241 237 238 241 240 243 247 251 253 258 264 263 266 274
280 277 275 273 271 269 264 253 243 238 233 234 242 243 247 246 240 238 238 238 237 238 238 237 238 237 238 244 246 245 247 253 254 258 263 263 267 274
279 277 275 273 269 266 262 255 244 241 235 233 235 238 241 246 245 239 237 238 236 238 238 237 237 237 241 244 246 246 247 251 255 256 266 267 266 273
275 275 273 272 270 266 261 255 248 243 239 232 235 238 241 243 246 245 239 237 237 237 239 239 238 242 247 246 244 246 248 251 257 262 264 269 270 270
274 271 270 269 267 265 259 255 250 245 243 238 235 236 237 240 244 245 245 240 237 238 239 239 240 241 244 249 253 254 252 255 262 265 269 268 270 270
273 270 267 265 263 261 259 254 250 247 245 243 240 234 238 240 244 247 245 244 241 240 238 240 243 244 247 247 249 251 253 256 258 260 265 268 267 269
272 269 265 261 259 257 255 252 250 248 245 243 238 237 238 240 242 246 248 243 242 242 241 241 242 245 248 250 251 252 253 256 257 260 262 266 266 264
269 267 264 261 257 254 252 251 249 248 245 243 242 241 238 240 241 244 247 246 241 241 242 242 243 244 246 249 251 252 253 254 255 256 257 259 260 261
266 264 262 260 257 252 249 249 248 247 246 242 241 240 239 238 241 242 245 246 243 239 241 240 244 245 245 247 249 251 251 251 251 252 256 261 260 257
267 264 261 258 257 253 248 247 246 245 243 242 241 238 240 238 239 240 240 242 243 237 238 239 242 242 244 245 248 250 251 253 252 252 255 260 262 258
266 263 259 256 254 253 249 244 243 243 243 240 239 237 236 237 238 236 237 238 240 238 234 237 240 241 242 244 245 248 249 249 251 250 251 255 259 258
266 262 259 256 252 251 249 245 244 242 242 240 239 235 233 234 234 234 235 236 237 235 234 234 236 239 239 239 241 244 246 247 248 249 250 252 256 258
264 262 260 256 252 247 247 246 243 243 242 241 237 236 233 232 231 231 232 235 235 234 231 231 232 236 235 236 237 239 244 246 246 247 248 249 252 255
265 261 259 257 255 252 249 248 246 242 240 239 236 235 234 231 228 228 230 231 232 234 231 227 230 233 233 232 234 236 238 242 245 246 246 246 248 251
265 261 261 260 259 256 252 248 246 243 239 238 237 233 233 233 229 226 228 229 230 231 230 229 228 229 231 231 231 234 234 237 242 244 243 243 244 247
266 264 261 258 256 253 248 244 241 239 236 235 234 232 230 227 229 227 228 230 231 231 231 228 228 228 230 230 231 232 233 234 238 242 241 240 242 243
260 256 255 253 249 247 244 240 235 234 234 236 235 233 227 226 225 226 227 229 231 230 229 228 227 227 228 228 228 230 232 232 234 238 241 240 241 242
260 255 250 249 250 248 246 242 237 234 234 235 237 235 230 225 224 224 224 226 229 230 229 228 228 229 228 227 226 227 230 231 232 234 236 239 240 241
250 251 254 254 254 252 248 243 237 231 231 231 232 232 228 226 224 222 222 224 226 228 228 227 228 228 227 226 225 226 228 230 231 232 233 237 239 241
254 255 256 254 250 247 245 241 236 232 229 229 228 227 225 224 223 222 221 221 222 223 225 227 226 227 226 223 224 227 227 228 229 231 232 234 237 239
258 255 251 249 246 244 242 238 233 230 229 228 226 225 224 223 222 221 220 219 220 221 222 224 223 224 224 222 224 226 225 227 228 228 232 234 235 238
Height
10490 10490 10489 10492 10500 10504 10506 10510 10512 10510 10513 10510 10515 10519 10526 10532 10538 10543 10549 10555 10561 10565 10572 10582 10588 10594 10600 10607 10614 10620 10625 10631 10636 10640 10644 10649 10652 10655
10460 10461 10460 10460 10465 10471 10474 10477 10482 10486 10489 10482 10484 10490 10499 10506 10512 10518 10526 10532 10538 10543 10549 10559 10567 10572 10577 10586 10594 10601 10605 10611 10616 10621 10627 10631 10636 10640
10422 10423 10424 10425 10428 10431 10438 10443 10448 10454 10463 10458 10455 10458 10467 10477 10483 10493 10501 10507 10512 10520 10529 10536 10542 10549 10558 10564 10572 10578 10585 10590 10597 10603 10609 10615 10619 10622
10383 10383 10386 10386 10392 10390 10395 10405 10411 10416 10428 10438 10428 10430 10439 10444 10454 10464 10473 10479 10486 10494 10504 10510 10518 10527 10536 10544 10552 10558 10565 10570 10577 10583 10590 10598 10602 10603
10342 10340 10341 10342 10350 10352 10355 10365 10371 10377 10388 10403 10401 10400 10405 10409 10419 10432 10444 10452 10460 10467 10478 10487 10496 10504 10513 10520 10528 10536 10543 10549 10557 10563 10571 10575 10580 10584
10299 10299 10299 10299 10304 10311 10317 10323 10332 10342 10351 10365 10373 10367 10373 10378 10388 10398 10412 10422 10431 10442 10452 10462 10471 10483 10487 10495 10508 10516 10522 10529 10536 10542 10549 10553 10556 10564
10261 10260 10261 10261 10266 10270 10280 10284 10291 10304 10315 10326 10340 10340 10341 10347 10353 10366 10381 10391 10405 10415 10426 10433 10447 10459 10466 10475 10483 10491 10500 10509 10513 10517 10522 10531 10535 10541
10221 10221 10223 10225 10227 10234 10241 10249 10255 10264 10277 10290 10303 10313 10313 10316 10320 10330 10351 10361 10378 10392 10400 10409 10421 10432 10440 10454 10464 10471 10480 10488 10495 10500 10506 10511 10516 10518
10180 10182 10186 10191 10194 10198 10205 10215 10220 10228 10238 10248 10265 10276 10283 10286 10293 10303 10314 10336 10351 10361 10375 10388 10398 10406 10417 10430 10438 10450 10458 10467 10474 10479 10484 10488 10490 10493
10146 10146 10152 10156 10161 10168 10174 10182 10187 10195 10205 10216 10228 10241 10251 10255 10267 10275 10284 10303 10324 10335 10346 10360 10367 10381 10395 10406 10415 10424 10435 10443 10451 10458 10464 10466 10467 10470
10114 10117 10121 10124 10125 10137 10148 10151 10158 10164 10170 10183 10196 10209 10218 10228 10238 10249 10259 10271 10293 10311 10320 10336 10341 10354 10370 10382 10389 10399 10410 10419 10429 10436 10440 10442 10444 10449
10087 10090 10091 10096 10098 10107 10118 10125 10130 10130 10144 10155 10168 10180 10188 10199 10209 10222 10232 10247 10264 10284 10296 10309 10315 10331 10346 10359 10368 10377 10388 10395 10404 10412 10418 10422 10426 10429
10062 10060 10063 10067 10072 10080 10090 10097 10099 10103 10115 10128 10140 10152 10162 10172 10181 10194 10209 10225 10240 10261 10271 10284 10295 10307 10325 10337 10347 10356 10366 10377 10383 10392 10399 10405 10409 10410
10037 10035 10037 10042 10050 10054 10060 10069 10074 10081 10091 10105 10118 10128 10139 10147 10157 10173 10187 10200 10217 10236 10249 10265 10275 10286 10301 10314 10327 10336 10345 10355 10363 10372 10380 10387 10392 10394
10015 10015 10017 10021 10026 10032 10035 10044 10055 10064 10073 10084 10095 10103 10113 10124 10136 10149 10164 10179 10193 10209 10227 10240 10253 10261 10279 10293 10303 10317 10326 10334 10343 10351 10360 10369 10375 10379
9999 9998 9997 10000 10006 10012 10020 10027 10038 10047 10055 10063 10070 10080 10091 10105 10117 10128 10142 10157 10171 10187 10204 10218 10230 10243 10256 10271 10281 10294 10307 10314 10322 10333 10343 10352 10359 10364
9982 9981 9982 9986 9991 9998 10006 10012 10020 10028 10036 10041 10049 10060 10071 10086 10097 10109 10123 10137 10153 10166 10181 10196 10208 10222 10234 10249 10261 10270 10286 10297 10305 10315 10326 10335 10342 10348
9968 9969 9971 9974 9977 9982 9987 9994 10001 10008 10013 10020 10027 10038 10049 10063 10076 10092 10104 10119 10134 10147 10162 10176 10189 10202 10216 10229 10239 10248 10263 10279 10290 10296 10308 10317 10325 10332
9954 9956 9957 9960 9963 9967 9972 9978 9983 9989 9996 10002 10010 10019 10032 10045 10058 10072 10086 10100 10114 10127 10142 10157 10171 10183 10197 10207 10218 10230 10244 10259 10271 10280 10288 10298 10307 10316
9942 9944 9945 9947 9951 9956 9961 9966 9971 9977 9982 9990 9998 10007 10019 10030 10042 10054 10068 10082 10095 10110 10124 10140 10155 10167 10176 10186 10199 10213 10225 10237 10250 10261 10271 10280 10289 10299
9931 9933 9936 9940 9945 9948 9951 9955 9960 9965 9970 9977 9984 9994 10005 10015 10026 10039 10051 10064 10078 10093 10108 10122 10132 10145 10159 10171 10181 10192 10207 10219 10231 10242 10253 10263 10272 10282
9926 9928 9931 9934 9936 9938 9941 9945 9949 9954 9959 9964 9972 9980 9990 10000 10010 10022 10035 10048 10062 10076 10091 10103 10118 10131 10142 10152 10162 10175 10188 10201 10212 10222 10234 10246 10255 10264
9922 9923 9926 9927 9930 9932 9935 9938 9942 9946 9950 9956 9963 9971 9980 9989 9999 10009 10021 10034 10047 10062 10075 10088 10103 10114 10124 10135 10146 10158 10170 10182 10194 10205 10216 10227 10237 10246